| time (UTC) | temp F | wind direction | speed MPH | gust MPH | rain 1hr in | rain 24hr in | rain mn in | humidity % | barometer mb |
| 20260906102549 | 58 | 328 | 0.0 | 0.0 | 0.00 | 0.00 | 0.00 | 99 | 1016.6 |
| 20260906102044 | 58 | 329 | 0.0 | 0.0 | 0.00 | 0.00 | 0.00 | 99 | 1016.5 |
| 20260906101539 | 58 | 308 | 0.0 | 0.0 | 0.00 | 0.00 | 0.00 | 98 | 1016.7 |
| 20260906101034 | 59 | 324 | 0.0 | 0.0 | 0.00 | 0.00 | 0.00 | 98 | 1016.8 |
| 20260906100529 | 59 | 321 | 0.0 | 0.0 | 0.00 | 0.00 | 0.00 | 98 | 1016.6 |
| 20260906100024 | 59 | 323 | 0.0 | 0.0 | 0.00 | 0.00 | 0.00 | 98 | 1016.6 |
| 20260906095519 | 59 | 323 | 0.0 | 0.0 | 0.00 | 0.00 | 0.00 | 97 | 1016.8 |
| 20260906095014 | 59 | 323 | 0.0 | 0.0 | 0.00 | 0.00 | 0.00 | 98 | 1016.5 |
| 20260906094513 | 59 | 323 | 0.0 | 0.0 | 0.00 | 0.00 | 0.00 | 97 | 1016.5 |
| 20260906094009 | 59 | 323 | 0.0 | 0.0 | 0.00 | 0.00 | 0.00 | 97 | 1016.3 |
| 20260906093505 | 59 | 323 | 0.0 | 0.0 | 0.00 | 0.00 | 0.00 | 97 | 1016.6 |
| 20260906093000 | 59 | 326 | 0.0 | 0.0 | 0.00 | 0.00 | 0.00 | 96 | 1016.2 |
| 20260906092459 | 59 | 326 | 0.0 | 0.0 | 0.00 | 0.00 | 0.00 | 96 | 1016.1 |
| 20260906091954 | 59 | 325 | 0.0 | 0.0 | 0.00 | 0.00 | 0.00 | 95 | 1016.4 |
| 20260906091450 | 60 | 322 | 0.0 | 0.0 | 0.00 | 0.00 | 0.00 | 95 | 1016.3 |
| 20260906090947 | 60 | 322 | 0.0 | 0.0 | 0.00 | 0.00 | 0.00 | 95 | 1016.1 |
| 20260906090441 | 60 | 323 | 0.0 | 0.0 | 0.00 | 0.00 | 0.00 | 95 | 1016.1 |
| 20260906085935 | 60 | 322 | 0.0 | 0.0 | 0.00 | 0.00 | 0.00 | 96 | 1016.1 |
| 20260906085435 | 60 | 320 | 0.0 | 0.0 | 0.00 | 0.00 | 0.00 | 96 | 1016.3 |
| 20260906084934 | 60 | 40 | 0.0 | 0.0 | 0.00 | 0.00 | 0.00 | 96 | 1016.2 |
| 20260906084429 | 60 | 324 | 0.0 | 0.0 | 0.00 | 0.00 | 0.00 | 96 | 1016.2 |
| 20260906083928 | 60 | 321 | 0.0 | 0.0 | 0.00 | 0.00 | 0.00 | 97 | 1016.2 |
| 20260906083424 | 60 | 347 | 0.0 | 0.0 | 0.00 | 0.00 | 0.00 | 98 | 1016.1 |
| 20260906082923 | 60 | 324 | 0.0 | 0.0 | 0.00 | 0.00 | 0.00 | 98 | 1016.3 |
| 20260906082419 | 60 | 327 | 0.0 | 0.0 | 0.00 | 0.00 | 0.00 | 99 | 1016.0 |
| 20260906081914 | 60 | 313 | 1.0 | 1.0 | 0.00 | 0.00 | 0.00 | 99 | 1015.8 |
| 20260906081409 | 60 | 324 | 0.0 | 0.0 | 0.00 | 0.00 | 0.00 | 99 | 1016.1 |
| 20260906080906 | 60 | 319 | 1.0 | 2.0 | 0.00 | 0.00 | 0.00 | 99 | 1016.1 |
| 20260906080402 | 60 | 318 | 0.0 | 0.0 | 0.00 | 0.00 | 0.00 | 99 | 1015.9 |
| 20260906075901 | 60 | 318 | 0.0 | 0.0 | 0.00 | 0.00 | 0.00 | 99 | 1016.1 |
| 20260906075356 | 60 | 318 | 0.0 | 0.0 | 0.00 | 0.00 | 0.00 | 99 | 1016.0 |
| 20260906074852 | 60 | 321 | 0.0 | 0.0 | 0.00 | 0.00 | 0.00 | 99 | 1015.9 |
| 20260906074351 | 60 | 321 | 0.0 | 0.0 | 0.00 | 0.00 | 0.00 | 99 | 1016.0 |
| 20260906073850 | 60 | 320 | 0.0 | 0.0 | 0.00 | 0.00 | 0.00 | 99 | 1015.7 |
| 20260906073345 | 59 | 320 | 0.0 | 0.0 | 0.00 | 0.00 | 0.00 | 99 | 1015.8 |
| 20260906072842 | 59 | 317 | 0.0 | 0.0 | 0.00 | 0.00 | 0.00 | 99 | 1015.9 |
| 20260906072337 | 59 | 328 | 0.0 | 0.0 | 0.00 | 0.00 | 0.00 | 99 | 1015.9 |
| 20260906071833 | 59 | 329 | 0.0 | 0.0 | 0.00 | 0.00 | 0.00 | 99 | 1015.8 |
| 20260906071328 | 59 | 328 | 0.0 | 0.0 | 0.00 | 0.00 | 0.00 | 99 | 1015.8 |
| 20260906070824 | 59 | 328 | 0.0 | 0.0 | 0.00 | 0.00 | 0.00 | 99 | 1015.5 |
| 20260906070319 | 60 | 328 | 0.0 | 0.0 | 0.00 | 0.00 | 0.00 | 99 | 1015.7 |
| 20260906065814 | 60 | 329 | 0.0 | 0.0 | 0.00 | 0.00 | 0.00 | 99 | 1015.6 |
| 20260906065309 | 60 | 329 | 0.0 | 0.0 | 0.00 | 0.00 | 0.00 | 99 | 1015.9 |
| 20260906064805 | 60 | 326 | 0.0 | 0.0 | 0.00 | 0.00 | 0.00 | 99 | 1015.8 |
| 20260906064301 | 60 | 326 | 0.0 | 0.0 | 0.00 | 0.00 | 0.00 | 99 | 1015.7 |
| 20260906063801 | 60 | 324 | 0.0 | 0.0 | 0.00 | 0.00 | 0.00 | 99 | 1015.9 |
| 20260906063256 | 60 | 318 | 0.0 | 0.0 | 0.00 | 0.00 | 0.00 | 99 | 1015.9 |
| 20260906062751 | 60 | 318 | 0.0 | 0.0 | 0.00 | 0.00 | 0.00 | 99 | 1015.9 |
| 20260906062250 | 60 | 318 | 0.0 | 0.0 | 0.00 | 0.00 | 0.00 | 99 | 1015.7 |
| 20260906061746 | 59 | 342 | 0.0 | 0.0 | 0.00 | 0.00 | 0.00 | 99 | 1015.9 |
| 20260906061243 | 59 | 326 | 0.0 | 0.0 | 0.00 | 0.00 | 0.00 | 99 | 1015.8 |
| 20260906060737 | 59 | 327 | 0.0 | 0.0 | 0.00 | 0.00 | 0.00 | 99 | 1016.0 |
| 20260906060235 | 59 | 315 | 0.0 | 0.0 | 0.00 | 0.00 | 0.00 | 99 | 1016.1 |
| 20260906055731 | 58 | 327 | 0.0 | 0.0 | 0.00 | 0.00 | 0.00 | 99 | 1016.2 |
| 20260906055226 | 58 | 325 | 0.0 | 0.0 | 0.00 | 0.00 | 0.00 | 99 | 1016.2 |
| 20260906054721 | 58 | 326 | 0.0 | 0.0 | 0.00 | 0.00 | 0.00 | 99 | 1016.1 |
| 20260906054216 | 58 | 326 | 0.0 | 0.0 | 0.00 | 0.00 | 0.00 | 99 | 1016.1 |
| 20260906053713 | 58 | 326 | 0.0 | 0.0 | 0.00 | 0.00 | 0.00 | 99 | 1016.0 |
| 20260906053208 | 58 | 329 | 0.0 | 0.0 | 0.00 | 0.00 | 0.00 | 99 | 1016.2 |
| 20260906052703 | 58 | 331 | 0.0 | 0.0 | 0.00 | 0.00 | 0.00 | 99 | 1016.3 |
| 20260906052159 | 58 | 325 | 0.0 | 0.0 | 0.00 | 0.00 | 0.00 | 99 | 1016.2 |
| 20260906051656 | 59 | 327 | 0.0 | 0.0 | 0.00 | 0.00 | 0.00 | 99 | 1016.1 |
| 20260906051155 | 59 | 332 | 0.0 | 0.0 | 0.00 | 0.00 | 0.00 | 99 | 1016.2 |
| 20260906050651 | 59 | 339 | 0.0 | 0.0 | 0.00 | 0.00 | 0.00 | 99 | 1016.2 |
| 20260906050146 | 59 | 341 | 0.0 | 0.0 | 0.00 | 0.00 | 0.00 | 99 | 1016.1 |
| 20260906045644 | 59 | 329 | 0.0 | 0.0 | 0.00 | 0.00 | 0.00 | 99 | 1016.3 |
| 20260906045140 | 59 | 329 | 0.0 | 0.0 | 0.00 | 0.00 | 0.00 | 98 | 1016.2 |
| 20260906044636 | 59 | 329 | 0.0 | 0.0 | 0.00 | 0.00 | 0.00 | 98 | 1016.2 |
| 20260906044131 | 59 | 320 | 0.0 | 0.0 | 0.00 | 0.00 | 0.00 | 97 | 1016.2 |
| 20260906043627 | 59 | 319 | 0.0 | 0.0 | 0.00 | 0.00 | 0.00 | 97 | 1016.3 |
| 20260906043122 | 60 | 320 | 0.0 | 0.0 | 0.00 | 0.00 | 0.00 | 96 | 1016.2 |
| 20260906042621 | 60 | 330 | 0.0 | 0.0 | 0.00 | 0.00 | 0.00 | 96 | 1016.3 |
| 20260906042115 | 60 | 333 | 0.0 | 0.0 | 0.00 | 0.00 | 0.00 | 96 | 1016.1 |
| 20260906041612 | 60 | 333 | 0.0 | 0.0 | 0.00 | 0.00 | 0.00 | 96 | 1016.0 |
| 20260906041106 | 60 | 324 | 0.0 | 0.0 | 0.00 | 0.00 | 0.00 | 95 | 1016.0 |
| 20260906040602 | 61 | 321 | 0.0 | 0.0 | 0.00 | 0.00 | 0.00 | 94 | 1016.0 |
| 20260906040057 | 62 | 321 | 0.0 | 0.0 | 0.00 | 0.00 | 0.00 | 93 | 1016.3 |
| 20260906035552 | 62 | 320 | 0.0 | 0.0 | 0.00 | 0.00 | 0.00 | 92 | 1015.9 |
| 20260906035048 | 62 | 334 | 0.0 | 0.0 | 0.00 | 0.00 | 0.00 | 90 | 1015.9 |
| 20260906034548 | 62 | 334 | 0.0 | 0.0 | 0.00 | 0.00 | 0.00 | 90 | 1016.0 |
| 20260906034037 | 62 | 336 | 0.0 | 0.0 | 0.00 | 0.00 | 0.00 | 90 | 1015.9 |
| 20260906033532 | 63 | 318 | 0.0 | 0.0 | 0.00 | 0.00 | 0.00 | 90 | 1015.7 |
| 20260906033027 | 63 | 326 | 0.0 | 0.0 | 0.00 | 0.00 | 0.00 | 89 | 1015.8 |
| 20260906032524 | 63 | 338 | 1.0 | 1.0 | 0.00 | 0.00 | 0.00 | 89 | 1015.7 |
| 20260906032018 | 63 | 310 | 0.0 | 0.0 | 0.00 | 0.00 | 0.00 | 89 | 1015.6 |
| 20260906031514 | 63 | 333 | 0.0 | 0.0 | 0.00 | 0.00 | 0.00 | 90 | 1015.6 |
| 20260906031009 | 63 | 324 | 0.0 | 0.0 | 0.00 | 0.00 | 0.00 | 90 | 1015.5 |
| 20260906030503 | 62 | 0 | 0.0 | 0.0 | 0.00 | 0.00 | 0.00 | 90 | 1015.6 |
| 20260906030003 | 62 | 332 | 0.0 | 0.0 | 0.00 | 0.00 | 0.00 | 92 | 1015.7 |
| 20260906025502 | 62 | 358 | 0.0 | 0.0 | 0.00 | 0.00 | 0.00 | 93 | 1015.4 |
| 20260906025001 | 62 | 326 | 0.0 | 0.0 | 0.00 | 0.00 | 0.00 | 92 | 1015.6 |
| 20260906024456 | 62 | 342 | 0.0 | 0.0 | 0.00 | 0.00 | 0.00 | 92 | 1015.5 |
| 20260906023956 | 62 | 327 | 0.0 | 0.0 | 0.00 | 0.00 | 0.00 | 92 | 1015.7 |
| 20260906023453 | 63 | 335 | 0.0 | 0.0 | 0.00 | 0.00 | 0.00 | 91 | 1015.8 |
| 20260906022952 | 63 | 330 | 0.0 | 0.0 | 0.00 | 0.00 | 0.00 | 91 | 1015.8 |
| 20260906022443 | 63 | 313 | 1.0 | 1.0 | 0.00 | 0.00 | 0.00 | 91 | 1015.6 |
| 20260906021937 | 62 | 16 | 1.0 | 1.0 | 0.00 | 0.00 | 0.00 | 91 | 1015.6 |
| 20260906021432 | 62 | 334 | 0.0 | 0.0 | 0.00 | 0.00 | 0.00 | 91 | 1015.5 |
| 20260906020932 | 62 | 319 | 0.0 | 0.0 | 0.00 | 0.00 | 0.00 | 91 | 1015.8 |
| 20260906020426 | 63 | 319 | 0.0 | 0.0 | 0.00 | 0.00 | 0.00 | 91 | 1015.5 |
| 20260906015921 | 63 | 324 | 0.0 | 0.0 | 0.00 | 0.00 | 0.00 | 90 | 1015.7 |
| 20260906015420 | 64 | 330 | 0.0 | 0.0 | 0.00 | 0.00 | 0.00 | 90 | 1015.4 |
| 20260906014915 | 64 | 303 | 0.0 | 0.0 | 0.00 | 0.00 | 0.00 | 89 | 1015.5 |
| 20260906014414 | 64 | 325 | 0.0 | 0.0 | 0.00 | 0.00 | 0.00 | 88 | 1015.7 |
| 20260906013911 | 64 | 320 | 0.0 | 0.0 | 0.00 | 0.00 | 0.00 | 89 | 1015.6 |
| 20260906013406 | 64 | 325 | 0.0 | 0.0 | 0.00 | 0.00 | 0.00 | 89 | 1015.5 |
| 20260906012902 | 64 | 300 | 0.0 | 1.0 | 0.00 | 0.00 | 0.00 | 87 | 1015.7 |
| 20260906012356 | 64 | 344 | 0.0 | 1.0 | 0.00 | 0.00 | 0.00 | 88 | 1015.4 |
| 20260906011855 | 64 | 322 | 0.0 | 0.0 | 0.00 | 0.00 | 0.00 | 87 | 1015.4 |
| 20260906011350 | 64 | 320 | 0.0 | 0.0 | 0.00 | 0.00 | 0.00 | 87 | 1015.3 |
| 20260906010846 | 64 | 3 | 0.0 | 0.0 | 0.00 | 0.00 | 0.00 | 87 | 1015.4 |
| 20260906010342 | 64 | 342 | 0.0 | 0.0 | 0.00 | 0.00 | 0.00 | 86 | 1015.4 |
| 20260906005838 | 65 | 285 | 0.0 | 0.0 | 0.00 | 0.00 | 0.00 | 86 | 1015.2 |
| 20260906005337 | 65 | 332 | 0.0 | 0.0 | 0.00 | 0.00 | 0.00 | 85 | 1015.1 |
| 20260906004836 | 65 | 327 | 0.0 | 0.0 | 0.00 | 0.00 | 0.00 | 85 | 1015.0 |
| 20260906004336 | 65 | 332 | 0.0 | 1.0 | 0.00 | 0.00 | 0.00 | 85 | 1015.0 |
| 20260906003831 | 66 | 316 | 0.0 | 0.0 | 0.00 | 0.00 | 0.00 | 84 | 1014.9 |
| 20260906003326 | 66 | 301 | 0.0 | 0.0 | 0.00 | 0.00 | 0.00 | 83 | 1014.9 |
| 20260906002822 | 66 | 332 | 0.0 | 1.0 | 0.00 | 0.00 | 0.00 | 83 | 1015.0 |
| 20260906002321 | 66 | 321 | 0.0 | 0.0 | 0.00 | 0.00 | 0.00 | 83 | 1015.1 |
| 20260906001817 | 66 | 353 | 0.0 | 0.0 | 0.00 | 0.00 | 0.00 | 83 | 1015.1 |
| 20260906001312 | 66 | 312 | 0.0 | 0.0 | 0.00 | 0.00 | 0.00 | 83 | 1014.8 |
| 20260906000808 | 66 | 325 | 0.0 | 0.0 | 0.00 | 0.00 | 0.00 | 83 | 1015.0 |
| 20260906000303 | 66 | 314 | 0.0 | 0.0 | 0.00 | 0.00 | 0.00 | 83 | 1015.0 |
| 20260905235757 | 66 | 316 | 0.0 | 0.0 | 0.00 | 0.00 | 0.00 | 83 | 1014.8 |
| 20260905235257 | 67 | 314 | 0.0 | 0.0 | 0.00 | 0.00 | 0.00 | 82 | 1014.6 |
| 20260905234752 | 67 | 287 | 2.0 | 2.0 | 0.00 | 0.00 | 0.00 | 81 | 1014.6 |
| 20260905234247 | 67 | 320 | 0.0 | 0.0 | 0.00 | 0.00 | 0.00 | 81 | 1014.8 |
| 20260905233742 | 67 | 340 | 0.0 | 1.0 | 0.00 | 0.00 | 0.00 | 82 | 1014.9 |
| 20260905233241 | 67 | 317 | 0.0 | 0.0 | 0.00 | 0.00 | 0.00 | 81 | 1014.2 |
| 20260905232736 | 67 | 315 | 0.0 | 0.0 | 0.00 | 0.00 | 0.00 | 81 | 1014.6 |
| 20260905232232 | 67 | 330 | 0.0 | 0.0 | 0.00 | 0.00 | 0.00 | 80 | 1014.5 |
| 20260905231728 | 67 | 321 | 0.0 | 0.0 | 0.00 | 0.00 | 0.00 | 79 | 1014.5 |
| 20260905231223 | 68 | 301 | 1.0 | 2.0 | 0.00 | 0.00 | 0.00 | 78 | 1014.5 |
| 20260905230719 | 68 | 286 | 0.0 | 0.0 | 0.00 | 0.00 | 0.00 | 79 | 1014.5 |
| 20260905230216 | 69 | 320 | 0.0 | 0.0 | 0.00 | 0.00 | 0.00 | 77 | 1014.3 |
| 20260905225711 | 69 | 336 | 0.0 | 1.0 | 0.00 | 0.00 | 0.00 | 76 | 1014.3 |
| 20260905225206 | 69 | 326 | 0.0 | 0.0 | 0.00 | 0.00 | 0.00 | 76 | 1014.3 |
| 20260905224705 | 69 | 330 | 0.0 | 1.0 | 0.00 | 0.00 | 0.00 | 75 | 1014.2 |
| 20260905224200 | 70 | 341 | 0.0 | 1.0 | 0.00 | 0.00 | 0.00 | 75 | 1014.1 |
| 20260905223656 | 70 | 345 | 1.0 | 2.0 | 0.00 | 0.00 | 0.00 | 72 | 1014.2 |
| 20260905223153 | 70 | 329 | 0.0 | 1.0 | 0.00 | 0.00 | 0.00 | 72 | 1014.2 |
| 20260905222648 | 71 | 307 | 1.0 | 1.0 | 0.00 | 0.00 | 0.00 | 72 | 1014.3 |
| 20260905222143 | 71 | 330 | 0.0 | 0.0 | 0.00 | 0.00 | 0.00 | 72 | 1014.0 |
| 20260905221638 | 71 | 320 | 0.0 | 0.0 | 0.00 | 0.00 | 0.00 | 72 | 1014.1 |
| 20260905221135 | 71 | 335 | 0.0 | 0.0 | 0.00 | 0.00 | 0.00 | 68 | 1013.9 |
| 20260905220631 | 71 | 338 | 0.0 | 1.0 | 0.00 | 0.00 | 0.00 | 68 | 1014.3 |
| 20260905220127 | 71 | 311 | 1.0 | 2.0 | 0.00 | 0.00 | 0.00 | 67 | 1014.1 |
| 20260905215626 | 72 | 328 | 1.0 | 2.0 | 0.00 | 0.00 | 0.00 | 68 | 1013.9 |
| 20260905215122 | 72 | 0 | 0.0 | 0.0 | 0.00 | 0.00 | 0.00 | 71 | 1013.9 |
| 20260905214618 | 72 | 324 | 0.0 | 0.0 | 0.00 | 0.00 | 0.00 | 72 | 1013.7 |
| 20260905214118 | 73 | 340 | 2.0 | 2.0 | 0.00 | 0.00 | 0.00 | 71 | 1013.8 |
| 20260905213613 | 72 | 315 | 0.0 | 1.0 | 0.00 | 0.00 | 0.00 | 71 | 1013.7 |
| 20260905213108 | 72 | 304 | 0.0 | 0.0 | 0.00 | 0.00 | 0.00 | 70 | 1013.8 |
| 20260905212603 | 72 | 317 | 1.0 | 1.0 | 0.00 | 0.00 | 0.00 | 74 | 1013.6 |
| 20260905212102 | 72 | 303 | 1.0 | 1.0 | 0.00 | 0.00 | 0.00 | 71 | 1013.7 |
| 20260905211558 | 71 | 340 | 0.0 | 0.0 | 0.00 | 0.00 | 0.00 | 71 | 1013.8 |
| 20260905211053 | 72 | 357 | 2.0 | 3.0 | 0.00 | 0.00 | 0.00 | 68 | 1013.5 |
| 20260905210549 | 73 | 24 | 3.0 | 4.0 | 0.00 | 0.00 | 0.00 | 66 | 1013.5 |
| 20260905210044 | 73 | 326 | 1.0 | 1.0 | 0.00 | 0.00 | 0.00 | 68 | 1013.6 |
| 20260905205543 | 73 | 314 | 1.0 | 2.0 | 0.00 | 0.00 | 0.00 | 71 | 1013.6 |
| 20260905205042 | 73 | 302 | 1.0 | 2.0 | 0.00 | 0.00 | 0.00 | 72 | 1013.3 |
| 20260905204537 | 72 | 350 | 0.0 | 1.0 | 0.00 | 0.00 | 0.00 | 71 | 1013.0 |
| 20260905204033 | 72 | 303 | 1.0 | 1.0 | 0.00 | 0.00 | 0.00 | 71 | 1013.3 |
| 20260905203532 | 73 | 321 | 1.0 | 1.0 | 0.00 | 0.00 | 0.00 | 70 | 1013.4 |
| 20260905203028 | 74 | 316 | 0.0 | 0.0 | 0.00 | 0.00 | 0.00 | 68 | 1013.3 |
| 20260905202523 | 75 | 294 | 0.0 | 0.0 | 0.00 | 0.00 | 0.00 | 66 | 1013.3 |
| 20260905202018 | 75 | 302 | 0.0 | 0.0 | 0.00 | 0.00 | 0.00 | 68 | 1013.4 |
| 20260905201514 | 75 | 313 | 0.0 | 1.0 | 0.00 | 0.00 | 0.00 | 66 | 1013.5 |
| 20260905201014 | 74 | 317 | 0.0 | 0.0 | 0.00 | 0.00 | 0.00 | 68 | 1013.5 |
| 20260905200509 | 76 | 313 | 1.0 | 2.0 | 0.00 | 0.00 | 0.00 | 68 | 1013.3 |
| 20260905200008 | 76 | 302 | 1.0 | 1.0 | 0.00 | 0.00 | 0.00 | 63 | 1013.1 |
| 20260905195503 | 77 | 302 | 2.0 | 2.0 | 0.00 | 0.00 | 0.00 | 63 | 1013.1 |
| 20260905194958 | 77 | 316 | 1.0 | 1.0 | 0.00 | 0.00 | 0.00 | 67 | 1013.1 |
| 20260905194457 | 76 | 312 | 0.0 | 1.0 | 0.00 | 0.00 | 0.00 | 66 | 1013.1 |
| 20260905193952 | 76 | 261 | 2.0 | 3.0 | 0.00 | 0.00 | 0.00 | 64 | 1013.2 |
| 20260905193447 | 75 | 307 | 2.0 | 2.0 | 0.00 | 0.00 | 0.00 | 66 | 1013.3 |
| 20260905192942 | 75 | 303 | 1.0 | 2.0 | 0.00 | 0.00 | 0.00 | 66 | 1013.2 |
| 20260905192437 | 75 | 274 | 1.0 | 1.0 | 0.00 | 0.00 | 0.00 | 65 | 1013.4 |
| 20260905191932 | 75 | 319 | 1.0 | 2.0 | 0.00 | 0.00 | 0.00 | 66 | 1013.1 |
| 20260905191431 | 75 | 315 | 0.0 | 1.0 | 0.00 | 0.00 | 0.00 | 66 | 1013.5 |
| 20260905190925 | 75 | 4 | 4.0 | 6.0 | 0.00 | 0.00 | 0.00 | 64 | 1013.2 |
| 20260905190423 | 75 | 343 | 1.0 | 2.0 | 0.00 | 0.00 | 0.00 | 66 | 1013.3 |
| 20260905185922 | 76 | 306 | 1.0 | 1.0 | 0.00 | 0.00 | 0.00 | 65 | 1013.6 |
| 20260905185418 | 75 | 300 | 1.0 | 2.0 | 0.00 | 0.00 | 0.00 | 68 | 1013.5 |
| 20260905184916 | 76 | 311 | 0.0 | 2.0 | 0.00 | 0.00 | 0.00 | 65 | 1013.5 |
| 20260905184411 | 75 | 358 | 1.0 | 1.0 | 0.00 | 0.00 | 0.00 | 67 | 1013.5 |
| 20260905183910 | 75 | 297 | 0.0 | 1.0 | 0.00 | 0.00 | 0.00 | 67 | 1013.6 |
| 20260905183405 | 75 | 336 | 2.0 | 2.0 | 0.00 | 0.00 | 0.00 | 65 | 1013.7 |
| 20260905182859 | 75 | 309 | 2.0 | 2.0 | 0.00 | 0.00 | 0.00 | 65 | 1013.6 |
| 20260905182353 | 74 | 320 | 2.0 | 2.0 | 0.00 | 0.00 | 0.00 | 69 | 1013.4 |
| 20260905181849 | 74 | 291 | 2.0 | 2.0 | 0.00 | 0.00 | 0.00 | 69 | 1013.6 |
| 20260905181349 | 74 | 282 | 1.0 | 2.0 | 0.00 | 0.00 | 0.00 | 68 | 1013.6 |
| 20260905180847 | 74 | 322 | 2.0 | 2.0 | 0.00 | 0.00 | 0.00 | 69 | 1013.8 |
| 20260905180342 | 73 | 316 | 1.0 | 1.0 | 0.00 | 0.00 | 0.00 | 72 | 1013.8 |
| 20260905175838 | 73 | 291 | 2.0 | 2.0 | 0.00 | 0.00 | 0.00 | 72 | 1013.8 |
| 20260905175338 | 73 | 100 | 3.0 | 4.0 | 0.00 | 0.00 | 0.00 | 72 | 1013.9 |
| 20260905174833 | 74 | 289 | 1.0 | 3.0 | 0.00 | 0.00 | 0.00 | 71 | 1013.7 |
| 20260905174329 | 73 | 241 | 1.0 | 2.0 | 0.00 | 0.00 | 0.00 | 70 | 1013.8 |
| 20260905173824 | 73 | 320 | 1.0 | 2.0 | 0.00 | 0.00 | 0.00 | 70 | 1013.9 |
| 20260905173321 | 74 | 288 | 2.0 | 3.0 | 0.00 | 0.00 | 0.00 | 70 | 1013.9 |
| 20260905172821 | 73 | 315 | 1.0 | 2.0 | 0.00 | 0.00 | 0.00 | 69 | 1013.9 |
| 20260905172318 | 73 | 322 | 1.0 | 2.0 | 0.00 | 0.00 | 0.00 | 70 | 1013.9 |
| 20260905171815 | 72 | 134 | 2.0 | 2.0 | 0.00 | 0.00 | 0.00 | 72 | 1014.1 |
| 20260905171311 | 73 | 287 | 2.0 | 2.0 | 0.00 | 0.00 | 0.00 | 68 | 1014.0 |
| 20260905170808 | 73 | 0 | 1.0 | 1.0 | 0.00 | 0.00 | 0.00 | 69 | 1013.9 |
| 20260905170303 | 73 | 340 | 1.0 | 1.0 | 0.00 | 0.00 | 0.00 | 72 | 1014.0 |
| 20260905165801 | 73 | 315 | 0.0 | 0.0 | 0.00 | 0.00 | 0.00 | 72 | 1014.2 |
| 20260905165257 | 72 | 30 | 1.0 | 2.0 | 0.00 | 0.00 | 0.00 | 74 | 1014.2 |
| 20260905164751 | 72 | 285 | 1.0 | 2.0 | 0.00 | 0.00 | 0.00 | 72 | 1014.2 |
| 20260905164247 | 72 | 312 | 0.0 | 0.0 | 0.00 | 0.00 | 0.00 | 75 | 1014.0 |
| 20260905163742 | 72 | 309 | 2.0 | 3.0 | 0.00 | 0.00 | 0.00 | 72 | 1013.9 |
| 20260905163238 | 73 | 310 | 0.0 | 0.0 | 0.00 | 0.00 | 0.00 | 72 | 1013.9 |
| 20260905162734 | 71 | 219 | 1.0 | 2.0 | 0.00 | 0.00 | 0.00 | 72 | 1014.2 |
| 20260905162234 | 70 | 316 | 1.0 | 1.0 | 0.00 | 0.00 | 0.00 | 75 | 1014.0 |
| 20260905161728 | 71 | 259 | 2.0 | 2.0 | 0.00 | 0.00 | 0.00 | 74 | 1014.2 |
| 20260905161226 | 71 | 288 | 1.0 | 2.0 | 0.00 | 0.00 | 0.00 | 76 | 1014.0 |
| 20260905160726 | 71 | 307 | 1.0 | 1.0 | 0.00 | 0.00 | 0.00 | 76 | 1013.8 |
| 20260905160225 | 71 | 286 | 2.0 | 3.0 | 0.00 | 0.00 | 0.00 | 75 | 1013.9 |
| 20260905155719 | 72 | 313 | 1.0 | 1.0 | 0.00 | 0.00 | 0.00 | 75 | 1013.9 |
| 20260905155213 | 71 | 311 | 1.0 | 1.0 | 0.00 | 0.00 | 0.00 | 75 | 1013.9 |
| 20260905154707 | 71 | 295 | 1.0 | 1.0 | 0.00 | 0.00 | 0.00 | 77 | 1013.8 |
| 20260905154203 | 70 | 309 | 3.0 | 6.0 | 0.00 | 0.00 | 0.00 | 76 | 1013.9 |
| 20260905153659 | 70 | 289 | 2.0 | 2.0 | 0.00 | 0.00 | 0.00 | 77 | 1013.8 |
| 20260905153154 | 70 | 322 | 0.0 | 0.0 | 0.00 | 0.00 | 0.00 | 78 | 1013.8 |
| 20260905152648 | 71 | 290 | 2.0 | 2.0 | 0.00 | 0.00 | 0.00 | 76 | 1013.9 |
| 20260905152143 | 71 | 314 | 1.0 | 1.0 | 0.00 | 0.00 | 0.00 | 78 | 1014.0 |
| 20260905151633 | 70 | 307 | 1.0 | 1.0 | 0.00 | 0.00 | 0.00 | 78 | 1014.1 |
| 20260905151128 | 70 | 323 | 1.0 | 2.0 | 0.00 | 0.00 | 0.00 | 79 | 1014.0 |
| 20260905150624 | 70 | 302 | 1.0 | 1.0 | 0.00 | 0.00 | 0.00 | 79 | 1014.0 |
| 20260905150122 | 69 | 305 | 1.0 | 1.0 | 0.00 | 0.00 | 0.00 | 79 | 1014.0 |
| 20260905145621 | 69 | 298 | 1.0 | 2.0 | 0.00 | 0.00 | 0.00 | 80 | 1013.8 |
| 20260905145119 | 71 | 310 | 1.0 | 1.0 | 0.00 | 0.00 | 0.00 | 78 | 1013.8 |
| 20260905144620 | 70 | 298 | 1.0 | 2.0 | 0.00 | 0.00 | 0.00 | 80 | 1014.2 |
| 20260905144120 | 70 | 307 | 0.0 | 0.0 | 0.00 | 0.00 | 0.00 | 80 | 1014.0 |
| 20260905143620 | 70 | 309 | 2.0 | 2.0 | 0.00 | 0.00 | 0.00 | 80 | 1014.2 |
| 20260905143114 | 69 | 353 | 0.0 | 1.0 | 0.00 | 0.00 | 0.00 | 81 | 1013.8 |
| 20260905142614 | 69 | 297 | 2.0 | 2.0 | 0.00 | 0.00 | 0.00 | 81 | 1013.8 |
| 20260905142113 | 69 | 320 | 1.0 | 1.0 | 0.00 | 0.00 | 0.00 | 83 | 1013.9 |
| 20260905141613 | 69 | 341 | 0.0 | 1.0 | 0.00 | 0.00 | 0.00 | 82 | 1013.9 |
| 20260905141109 | 68 | 307 | 0.0 | 0.0 | 0.00 | 0.00 | 0.00 | 83 | 1014.0 |
| 20260905140605 | 68 | 311 | 2.0 | 2.0 | 0.00 | 0.00 | 0.00 | 83 | 1013.9 |
| 20260905140103 | 68 | 343 | 2.0 | 2.0 | 0.00 | 0.00 | 0.00 | 83 | 1014.2 |
| 20260905135559 | 68 | 81 | 4.0 | 6.0 | 0.00 | 0.00 | 0.00 | 83 | 1014.0 |
| 20260905135054 | 68 | 298 | 2.0 | 2.0 | 0.00 | 0.00 | 0.00 | 83 | 1014.0 |
| 20260905134549 | 68 | 305 | 0.0 | 0.0 | 0.00 | 0.00 | 0.00 | 82 | 1014.0 |
| 20260905134047 | 68 | 318 | 1.0 | 1.0 | 0.00 | 0.00 | 0.00 | 83 | 1014.1 |
| 20260905133543 | 68 | 326 | 2.0 | 3.0 | 0.00 | 0.00 | 0.00 | 83 | 1014.0 |
| 20260905133043 | 68 | 340 | 4.0 | 7.0 | 0.00 | 0.00 | 0.00 | 83 | 1014.1 |
| 20260905132543 | 68 | 197 | 3.0 | 3.0 | 0.00 | 0.00 | 0.00 | 84 | 1014.2 |
| 20260905132037 | 68 | 348 | 1.0 | 2.0 | 0.00 | 0.00 | 0.00 | 85 | 1014.2 |
| 20260905131533 | 68 | 108 | 1.0 | 2.0 | 0.00 | 0.00 | 0.00 | 85 | 1014.4 |
| 20260905131028 | 67 | 305 | 1.0 | 1.0 | 0.00 | 0.00 | 0.00 | 86 | 1014.3 |
| 20260905130527 | 67 | 319 | 0.0 | 0.0 | 0.00 | 0.00 | 0.00 | 85 | 1014.3 |
| 20260905130023 | 66 | 323 | 1.0 | 1.0 | 0.00 | 0.00 | 0.00 | 87 | 1014.3 |
| 20260905125522 | 66 | 314 | 1.0 | 1.0 | 0.00 | 0.00 | 0.00 | 87 | 1014.2 |
| 20260905125018 | 66 | 319 | 0.0 | 0.0 | 0.00 | 0.00 | 0.00 | 89 | 1014.5 |
| 20260905124514 | 65 | 285 | 0.0 | 0.0 | 0.00 | 0.00 | 0.00 | 90 | 1014.4 |
| 20260905124010 | 65 | 317 | 1.0 | 1.0 | 0.00 | 0.00 | 0.00 | 90 | 1014.5 |
| 20260905123505 | 64 | 147 | 2.0 | 3.0 | 0.00 | 0.00 | 0.00 | 91 | 1014.3 |
| 20260905123001 | 64 | 307 | 1.0 | 1.0 | 0.00 | 0.00 | 0.00 | 92 | 1014.1 |
| 20260905122455 | 63 | 298 | 1.0 | 1.0 | 0.00 | 0.00 | 0.00 | 92 | 1014.5 |
| 20260905121950 | 63 | 285 | 0.0 | 1.0 | 0.00 | 0.00 | 0.00 | 93 | 1014.4 |
| 20260905121446 | 62 | 312 | 0.0 | 0.0 | 0.00 | 0.00 | 0.00 | 95 | 1014.3 |
| 20260905120944 | 61 | 317 | 0.0 | 0.0 | 0.00 | 0.00 | 0.00 | 96 | 1014.2 |
| 20260905120439 | 61 | 314 | 0.0 | 0.0 | 0.00 | 0.00 | 0.00 | 96 | 1014.2 |
| 20260905115934 | 61 | 336 | 0.0 | 0.0 | 0.00 | 0.00 | 0.00 | 96 | 1014.2 |
| 20260905115433 | 61 | 330 | 0.0 | 0.0 | 0.00 | 0.00 | 0.00 | 97 | 1014.2 |
| 20260905114923 | 60 | 324 | 0.0 | 0.0 | 0.00 | 0.00 | 0.00 | 97 | 1014.0 |
| 20260905114422 | 60 | 329 | 0.0 | 0.0 | 0.00 | 0.00 | 0.00 | 96 | 1014.1 |
| 20260905113916 | 60 | 338 | 0.0 | 0.0 | 0.00 | 0.00 | 0.00 | 96 | 1013.8 |
| 20260905113411 | 60 | 330 | 0.0 | 0.0 | 0.00 | 0.00 | 0.00 | 95 | 1013.8 |
| 20260905112907 | 60 | 326 | 0.0 | 0.0 | 0.00 | 0.00 | 0.00 | 95 | 1013.9 |
| 20260905112402 | 60 | 296 | 0.0 | 0.0 | 0.00 | 0.00 | 0.00 | 96 | 1013.7 |
| 20260905111856 | 60 | 351 | 0.0 | 0.0 | 0.00 | 0.00 | 0.00 | 96 | 1013.9 |
| 20260905111350 | 59 | 331 | 0.0 | 0.0 | 0.00 | 0.00 | 0.00 | 96 | 1013.6 |
| 20260905110849 | 59 | 337 | 0.0 | 0.0 | 0.00 | 0.00 | 0.00 | 96 | 1013.7 |
| 20260905110344 | 59 | 326 | 0.0 | 0.0 | 0.00 | 0.00 | 0.00 | 96 | 1013.7 |
| 20260905105839 | 59 | 329 | 0.0 | 0.0 | 0.00 | 0.00 | 0.00 | 97 | 1013.6 |
| 20260905105338 | 59 | 332 | 0.0 | 0.0 | 0.00 | 0.00 | 0.00 | 97 | 1013.4 |
| 20260905104833 | 59 | 335 | 0.0 | 0.0 | 0.00 | 0.00 | 0.00 | 98 | 1013.4 |
| 20260905104330 | 59 | 332 | 0.0 | 0.0 | 0.00 | 0.00 | 0.00 | 97 | 1013.3 |
| 20260905103829 | 59 | 338 | 0.0 | 0.0 | 0.00 | 0.00 | 0.00 | 97 | 1013.2 |
| 20260905103325 | 59 | 334 | 0.0 | 0.0 | 0.00 | 0.00 | 0.00 | 97 | 1013.0 |
| 20260905102820 | 59 | 330 | 0.0 | 0.0 | 0.00 | 0.00 | 0.00 | 97 | 1013.4 |